Location: Taukkyan
(23.1052°N, 94.0030°E)
Time: 11:07:24
(UTC+00:00)

MetOp-A - Pass Details

Date: 06 July 2020
Orbit: 819 x 821 km, 98.5° (Epoch: 14 August)

Event Time Altitude Azimuth Distance (km) Brightness Sun altitude
Exits shadow 13:43:14 20° 144° (SE) 1,828 5.4 -14.8°
Maximum altitude 13:46:49 53° 75° (ENE) 1,006 4.3 -15.5°
Drops below altitude 10° 13:52:01 10° 360° (N) 2,417 7.0 -16.5°
Sets 13:54:24 0° 355° (N) 3,351 7.9 -16.9°
